{"data":{"norad_id":63148,"epoch":"2026-05-25T03:07:31.590336Z","epoch_age_seconds":73954,"freshness":"FRESH","line1":"1 63148U 25043S   26145.13022674  .00013703  00000+0  50646-3 0  9996","line2":"2 63148  42.9992 304.4755 0001448 273.4256  86.6430 15.27585145 69053","mean_motion":15.27585145,"eccentricity":0.0001448,"inclination_deg":42.9992,"raan_deg":304.4755,"arg_perigee_deg":273.4256,"mean_anomaly_deg":86.643,"bstar":0.00050646,"rev_number":6905,"period_min":94.266431217489,"perigee_km":482.04019258606,"apogee_km":484.02718761792,"semimajor_km":6861.170690102,"source":"CELESTRAK","updated_at":"2026-05-25T13:38:19.917269Z"}}